Time,TemperatureF,DewpointF,PressureIn,WindDirection,WindDirectionDegrees,WindSpeedMPH,WindSpeedGustMPH,Humidity,HourlyPrecipIn,Conditions,Clouds,dailyrainin,SoftwareType,DateUTC
2013-02-28 00:00:00,36.9,11.8,29.06,WSW,246,3.6,8.7,35,0.00,,,0.00,VWS V13.01,2013-02-28 05:00:00,
2013-02-28 00:05:00,36.9,11.8,29.06,West,280,4.0,10.5,35,0.00,,,0.00,VWS V13.01,2013-02-28 05:05:00,
2013-02-28 00:10:00,36.9,11.1,29.06,WSW,240,8.7,10.1,34,0.00,,,0.00,VWS V13.01,2013-02-28 05:10:00,
2013-02-28 00:15:00,36.9,10.5,29.06,WSW,255,8.7,10.5,33,0.00,,,0.00,VWS V13.01,2013-02-28 05:15:00,
2013-02-28 00:20:00,36.9,10.5,29.06,WNW,282,4.9,7.6,33,0.00,,,0.00,VWS V13.01,2013-02-28 05:20:00,
2013-02-28 00:25:00,36.7,10.3,29.06,West,263,7.6,8.1,33,0.00,,,0.00,VWS V13.01,2013-02-28 05:25:00,
2013-02-28 00:30:00,36.7,10.3,29.06,WSW,248,6.3,12.8,33,0.00,,,0.00,VWS V13.01,2013-02-28 05:30:00,
2013-02-28 00:35:00,36.7,11.0,29.06,WNW,294,5.4,10.5,34,0.00,,,0.00,VWS V13.01,2013-02-28 05:35:00,
2013-02-28 00:40:00,36.7,11.0,29.06,WSW,240,13.2,13.2,34,0.00,,,0.00,VWS V13.01,2013-02-28 05:40:00,
2013-02-28 00:45:00,36.7,11.0,29.06,WNW,299,5.8,8.7,34,0.00,,,0.00,VWS V13.01,2013-02-28 05:45:00,
2013-02-28 00:50:00,36.7,11.0,29.03,WSW,240,5.4,9.6,34,0.00,,,0.00,VWS V13.01,2013-02-28 05:50:00,
2013-02-28 00:55:00,36.7,11.0,29.03,West,280,8.1,12.8,34,0.00,,,0.00,VWS V13.01,2013-02-28 05:55:00,
2013-02-28 01:00:00,36.7,11.0,29.03,West,271,6.3,8.3,34,0.00,,,0.00,VWS V13.01,2013-02-28 06:00:00,
2013-02-28 01:05:00,36.7,11.0,29.03,WNW,297,11.0,11.0,34,0.00,,,0.00,VWS V13.01,2013-02-28 06:05:00,
2013-02-28 01:10:00,36.0,14.0,29.03,NW,316,8.1,13.2,40,0.00,,,0.00,VWS V13.01,2013-02-28 06:10:00,
2013-02-28 01:15:00,34.7,15.6,29.03,NW,315,10.1,11.0,45,0.00,,,0.00,VWS V13.01,2013-02-28 06:15:00,
2013-02-28 01:20:00,34.5,17.3,29.06,WNW,291,5.8,11.0,49,0.00,,,0.00,VWS V13.01,2013-02-28 06:20:00,
2013-02-28 01:25:00,34.5,16.9,29.06,WNW,293,10.1,12.3,48,0.00,,,0.00,VWS V13.01,2013-02-28 06:25:00,
2013-02-28 01:30:00,34.7,16.5,29.06,NNW,328,5.4,11.0,47,0.00,,,0.00,VWS V13.01,2013-02-28 06:30:00,
2013-02-28 01:35:00,34.7,15.0,29.06,WNW,293,5.4,13.2,44,0.00,,,0.00,VWS V13.01,2013-02-28 06:35:00,
2013-02-28 01:40:00,34.7,14.5,29.06,NW,309,8.7,9.2,43,0.00,,,0.00,VWS V13.01,2013-02-28 06:40:00,
2013-02-28 01:45:00,34.9,14.1,29.06,WNW,283,7.6,10.1,42,0.00,,,0.00,VWS V13.01,2013-02-28 06:45:00,
2013-02-28 01:50:00,34.9,13.6,29.06,NW,304,8.7,12.8,41,0.00,,,0.00,VWS V13.01,2013-02-28 06:50:00,
2013-02-28 01:55:00,34.9,13.0,29.06,WNW,294,5.4,6.3,40,0.00,,,0.00,VWS V13.01,2013-02-28 06:55:00,
2013-02-28 02:00:00,34.9,13.0,29.06,NW,308,5.8,8.1,40,0.00,,,0.00,VWS V13.01,2013-02-28 07:00:00,
2013-02-28 02:05:00,34.9,13.0,29.06,WNW,300,3.6,8.1,40,0.00,,,0.00,VWS V13.01,2013-02-28 07:05:00,
2013-02-28 02:10:00,34.9,12.4,29.06,WNW,286,5.4,9.6,39,0.00,,,0.00,VWS V13.01,2013-02-28 07:10:00,
2013-02-28 02:15:00,34.9,11.3,29.06,WNW,287,7.6,8.7,37,0.00,,,0.00,VWS V13.01,2013-02-28 07:15:00,
2013-02-28 02:20:00,34.9,11.3,29.06,WNW,301,3.6,8.1,37,0.00,,,0.00,VWS V13.01,2013-02-28 07:20:00,
2013-02-28 02:25:00,34.9,11.3,29.06,WNW,294,6.3,8.3,37,0.00,,,0.00,VWS V13.01,2013-02-28 07:25:00,
2013-02-28 02:30:00,34.9,10.6,29.06,West,261,7.6,13.2,36,0.00,,,0.00,VWS V13.01,2013-02-28 07:30:00,
2013-02-28 02:35:00,34.9,10.0,29.06,WNW,286,6.3,11.0,35,0.00,,,0.00,VWS V13.01,2013-02-28 07:35:00,
2013-02-28 02:40:00,34.9,10.0,29.06,WNW,290,5.4,8.3,35,0.00,,,0.00,VWS V13.01,2013-02-28 07:40:00,
2013-02-28 02:45:00,34.9,10.6,29.06,West,274,5.4,6.3,36,0.00,,,0.00,VWS V13.01,2013-02-28 07:45:00,
2013-02-28 02:50:00,34.9,10.6,29.06,West,269,7.6,7.6,36,0.00,,,0.00,VWS V13.01,2013-02-28 07:50:00,
2013-02-28 02:55:00,34.9,9.4,29.06,West,262,3.1,14.5,34,0.00,,,0.00,VWS V13.01,2013-02-28 07:55:00,
2013-02-28 03:00:00,34.9,8.0,29.06,WSW,253,7.6,11.0,32,0.00,,,0.00,VWS V13.01,2013-02-28 08:00:00,
2013-02-28 03:05:00,34.9,7.3,29.06,WSW,247,7.6,8.7,31,0.00,,,0.00,VWS V13.01,2013-02-28 08:05:00,
2013-02-28 03:10:00,34.9,7.3,29.06,WNW,286,5.8,8.1,31,0.00,,,0.00,VWS V13.01,2013-02-28 08:10:00,
2013-02-28 03:15:00,34.9,7.3,29.06,WNW,288,7.6,9.6,31,0.00,,,0.00,VWS V13.01,2013-02-28 08:15:00,
2013-02-28 03:20:00,34.9,7.3,29.06,West,266,8.3,8.3,31,0.00,,,0.00,VWS V13.01,2013-02-28 08:20:00,
2013-02-28 03:25:00,34.7,7.2,29.06,West,273,3.1,8.1,31,0.00,,,0.00,VWS V13.01,2013-02-28 08:25:00,
2013-02-28 03:30:00,34.7,7.2,29.06,West,275,8.1,12.8,31,0.00,,,0.00,VWS V13.01,2013-02-28 08:30:00,
2013-02-28 03:35:00,34.7,7.2,29.06,WNW,300,5.4,6.3,31,0.00,,,0.00,VWS V13.01,2013-02-28 08:35:00,
2013-02-28 03:40:00,34.7,7.2,29.06,WNW,287,4.9,8.1,31,0.00,,,0.00,VWS V13.01,2013-02-28 08:40:00,
2013-02-28 03:45:00,34.7,7.2,29.06,West,267,5.8,9.2,31,0.00,,,0.00,VWS V13.01,2013-02-28 08:45:00,
2013-02-28 03:50:00,34.5,7.0,29.06,WNW,303,5.8,8.3,31,0.00,,,0.00,VWS V13.01,2013-02-28 08:50:00,
2013-02-28 03:55:00,34.5,7.0,29.06,WNW,297,4.0,6.3,31,0.00,,,0.00,VWS V13.01,2013-02-28 08:55:00,
2013-02-28 04:00:00,34.5,7.0,29.06,WNW,298,5.4,6.3,31,0.00,,,0.00,VWS V13.01,2013-02-28 09:00:00,
2013-02-28 04:05:00,34.5,7.7,29.06,WNW,287,3.6,5.4,32,0.00,,,0.00,VWS V13.01,2013-02-28 09:05:00,
2013-02-28 04:10:00,34.3,7.6,29.06,WNW,293,5.8,5.8,32,0.00,,,0.00,VWS V13.01,2013-02-28 09:10:00,
2013-02-28 04:15:00,34.3,8.2,29.06,NW,311,7.6,8.1,33,0.00,,,0.00,VWS V13.01,2013-02-28 09:15:00,
2013-02-28 04:20:00,34.3,8.2,29.06,WNW,299,3.6,8.7,33,0.00,,,0.00,VWS V13.01,2013-02-28 09:20:00,
2013-02-28 04:25:00,34.3,8.2,29.06,West,275,4.0,8.7,33,0.00,,,0.00,VWS V13.01,2013-02-28 09:25:00,
2013-02-28 04:30:00,34.3,8.9,29.06,WNW,293,3.6,5.8,34,0.00,,,0.00,VWS V13.01,2013-02-28 09:30:00,
2013-02-28 04:35:00,34.3,8.9,29.06,West,263,3.6,6.3,34,0.00,,,0.00,VWS V13.01,2013-02-28 09:35:00,
2013-02-28 04:40:00,34.3,8.9,29.06,NW,308,8.1,8.1,34,0.00,,,0.00,VWS V13.01,2013-02-28 09:40:00,
2013-02-28 04:45:00,34.3,9.5,29.06,WNW,296,5.8,7.2,35,0.00,,,0.00,VWS V13.01,2013-02-28 09:45:00,
2013-02-28 04:50:00,34.3,9.5,29.06,West,265,3.6,8.1,35,0.00,,,0.00,VWS V13.01,2013-02-28 09:50:00,
2013-02-28 04:55:00,34.3,9.5,29.06,NNW,327,4.9,8.1,35,0.00,,,0.00,VWS V13.01,2013-02-28 09:55:00,
2013-02-28 05:00:00,34.3,10.2,29.06,WNW,292,5.4,7.6,36,0.00,,,0.00,VWS V13.01,2013-02-28 10:00:00,
2013-02-28 05:05:00,34.3,10.2,29.06,WNW,302,3.1,8.1,36,0.00,,,0.00,VWS V13.01,2013-02-28 10:05:00,
2013-02-28 05:10:00,34.2,10.6,29.06,West,266,3.1,7.6,37,0.00,,,0.00,VWS V13.01,2013-02-28 10:10:00,
2013-02-28 05:15:00,34.2,11.2,29.06,WNW,285,5.8,8.1,38,0.00,,,0.00,VWS V13.01,2013-02-28 10:15:00,
2013-02-28 05:20:00,34.0,12.2,29.06,West,281,7.6,8.3,40,0.00,,,0.00,VWS V13.01,2013-02-28 10:20:00,
2013-02-28 05:25:00,33.8,12.1,29.06,WNW,286,6.3,10.5,40,0.00,,,0.00,VWS V13.01,2013-02-28 10:25:00,
2013-02-28 05:30:00,33.6,12.4,29.06,WNW,291,6.3,8.1,41,0.00,,,0.00,VWS V13.01,2013-02-28 10:30:00,
2013-02-28 05:35:00,33.6,13.0,29.06,WNW,286,8.3,8.3,42,0.00,,,0.00,VWS V13.01,2013-02-28 10:35:00,
2013-02-28 05:40:00,33.4,13.9,29.06,WNW,292,5.8,8.7,44,0.00,,,0.00,VWS V13.01,2013-02-28 10:40:00,
2013-02-28 05:45:00,33.4,13.9,29.06,West,261,5.8,8.3,44,0.00,,,0.00,VWS V13.01,2013-02-28 10:45:00,
2013-02-28 05:50:00,33.4,13.9,29.06,West,273,7.2,8.3,44,0.00,,,0.00,VWS V13.01,2013-02-28 10:50:00,
2013-02-28 05:55:00,33.6,13.5,29.06,WNW,293,5.8,10.1,43,0.00,,,0.00,VWS V13.01,2013-02-28 10:55:00,
2013-02-28 06:00:00,33.6,13.5,29.06,WSW,240,4.0,6.7,43,0.00,,,0.00,VWS V13.01,2013-02-28 11:00:00,
2013-02-28 06:05:00,33.4,13.4,29.06,West,276,4.0,5.8,43,0.00,,,0.00,VWS V13.01,2013-02-28 11:05:00,
2013-02-28 06:10:00,33.4,13.4,29.06,NW,318,3.6,9.6,43,0.00,,,0.00,VWS V13.01,2013-02-28 11:10:00,
2013-02-28 06:15:00,33.3,13.7,29.06,WNW,297,3.6,7.6,44,0.00,,,0.00,VWS V13.01,2013-02-28 11:15:00,
2013-02-28 06:20:00,33.3,13.7,29.06,NW,308,6.3,7.6,44,0.00,,,0.00,VWS V13.01,2013-02-28 11:20:00,
2013-02-28 06:25:00,33.1,14.1,29.06,West,274,6.3,10.1,45,0.00,,,0.00,VWS V13.01,2013-02-28 11:25:00,
2013-02-28 06:30:00,33.1,14.1,29.06,WNW,297,6.3,10.1,45,0.00,,,0.00,VWS V13.01,2013-02-28 11:30:00,
2013-02-28 06:35:00,33.1,14.6,29.06,WNW,289,5.4,8.1,46,0.00,,,0.00,VWS V13.01,2013-02-28 11:35:00,
2013-02-28 06:40:00,33.1,14.1,29.06,NW,321,2.7,7.6,45,0.00,,,0.00,VWS V13.01,2013-02-28 11:40:00,
2013-02-28 06:45:00,33.1,14.1,29.06,WNW,294,6.7,8.7,45,0.00,,,0.00,VWS V13.01,2013-02-28 11:45:00,
2013-02-28 06:50:00,33.3,13.7,29.06,West,279,8.3,10.5,44,0.00,,,0.00,VWS V13.01,2013-02-28 11:50:00,
2013-02-28 06:55:00,33.3,13.2,29.06,WNW,291,5.4,8.7,43,0.00,,,0.00,VWS V13.01,2013-02-28 11:55:00,
2013-02-28 07:00:00,33.3,12.1,29.06,WNW,293,8.1,9.6,41,0.00,,,0.00,VWS V13.01,2013-02-28 12:00:00,
2013-02-28 07:05:00,33.4,12.3,29.06,WSW,246,5.8,7.6,41,0.00,,,0.00,VWS V13.01,2013-02-28 12:05:00,
2013-02-28 07:10:00,33.4,11.7,29.06,West,271,4.9,8.3,40,0.00,,,0.00,VWS V13.01,2013-02-28 12:10:00,
2013-02-28 07:15:00,33.6,10.7,29.06,WSW,251,3.6,8.3,38,0.00,,,0.00,VWS V13.01,2013-02-28 12:15:00,
2013-02-28 07:20:00,33.6,10.7,29.09,WNW,288,13.2,13.2,38,0.00,,,0.00,VWS V13.01,2013-02-28 12:20:00,
2013-02-28 07:25:00,33.6,9.5,29.09,WNW,288,5.4,13.2,36,0.00,,,0.00,VWS V13.01,2013-02-28 12:25:00,
2013-02-28 07:30:00,33.6,10.1,29.09,West,260,5.8,7.2,37,0.00,,,0.00,VWS V13.01,2013-02-28 12:30:00,
2013-02-28 07:35:00,33.6,9.5,29.09,WNW,298,4.9,10.1,36,0.00,,,0.00,VWS V13.01,2013-02-28 12:35:00,
2013-02-28 07:40:00,33.6,9.5,29.09,WNW,292,5.8,10.5,36,0.00,,,0.00,VWS V13.01,2013-02-28 12:40:00,
2013-02-28 07:45:00,33.6,9.5,29.09,NW,310,6.3,8.1,36,0.00,,,0.00,VWS V13.01,2013-02-28 12:45:00,
2013-02-28 07:50:00,33.6,9.5,29.09,WNW,299,5.4,8.7,36,0.00,,,0.00,VWS V13.01,2013-02-28 12:50:00,
2013-02-28 07:55:00,33.6,9.5,29.09,NW,308,5.8,8.1,36,0.00,,,0.00,VWS V13.01,2013-02-28 12:55:00,
2013-02-28 08:00:00,33.8,9.1,29.09,West,270,5.4,8.1,35,0.00,,,0.00,VWS V13.01,2013-02-28 13:00:00,
2013-02-28 08:05:00,33.8,9.1,29.09,West,279,6.3,9.6,35,0.00,,,0.00,VWS V13.01,2013-02-28 13:05:00,
2013-02-28 08:10:00,33.8,9.1,29.09,West,266,3.6,8.7,35,0.00,,,0.00,VWS V13.01,2013-02-28 13:10:00,
2013-02-28 08:15:00,33.8,8.4,29.09,West,275,4.0,12.8,34,0.00,,,0.00,VWS V13.01,2013-02-28 13:15:00,
2013-02-28 08:20:00,33.8,8.4,29.09,West,271,7.6,8.3,34,0.00,,,0.00,VWS V13.01,2013-02-28 13:20:00,
2013-02-28 08:25:00,33.8,8.4,29.09,WNW,292,5.4,11.4,34,0.00,,,0.00,VWS V13.01,2013-02-28 13:25:00,
2013-02-28 08:30:00,34.0,9.2,29.09,West,274,6.3,8.3,35,0.00,,,0.00,VWS V13.01,2013-02-28 13:30:00,
2013-02-28 08:35:00,34.0,8.6,29.09,NW,307,5.8,9.2,34,0.00,,,0.00,VWS V13.01,2013-02-28 13:35:00,
2013-02-28 08:40:00,34.0,7.9,29.09,West,266,6.7,8.7,33,0.00,,,0.00,VWS V13.01,2013-02-28 13:40:00,
2013-02-28 08:45:00,34.0,7.9,29.09,WNW,286,2.7,9.2,33,0.00,,,0.00,VWS V13.01,2013-02-28 13:45:00,
2013-02-28 08:50:00,34.0,8.6,29.09,NW,304,10.1,10.1,34,0.00,,,0.00,VWS V13.01,2013-02-28 13:50:00,
2013-02-28 08:55:00,34.0,7.9,29.09,WSW,254,5.8,8.3,33,0.00,,,0.00,VWS V13.01,2013-02-28 13:55:00,
2013-02-28 09:00:00,34.2,8.7,29.09,West,273,5.4,12.3,34,0.00,,,0.00,VWS V13.01,2013-02-28 14:00:00,
2013-02-28 09:05:00,34.2,8.7,29.12,WNW,285,4.9,8.1,34,0.00,,,0.00,VWS V13.01,2013-02-28 14:05:00,
2013-02-28 09:10:00,34.2,8.1,29.12,WSW,258,8.7,10.1,33,0.00,,,0.00,VWS V13.01,2013-02-28 14:10:00,
2013-02-28 09:15:00,34.2,8.1,29.12,West,275,5.8,8.3,33,0.00,,,0.00,VWS V13.01,2013-02-28 14:15:00,
2013-02-28 09:20:00,34.2,8.1,29.12,WNW,288,5.4,8.3,33,0.00,,,0.00,VWS V13.01,2013-02-28 14:20:00,
2013-02-28 09:25:00,34.2,8.1,29.12,West,269,5.4,8.7,33,0.00,,,0.00,VWS V13.01,2013-02-28 14:25:00,
2013-02-28 09:30:00,34.2,8.1,29.12,WNW,294,10.1,10.1,33,0.00,,,0.00,VWS V13.01,2013-02-28 14:30:00,
2013-02-28 09:35:00,34.0,7.9,29.12,West,271,8.7,8.7,33,0.00,,,0.00,VWS V13.01,2013-02-28 14:35:00,
2013-02-28 09:40:00,34.0,7.9,29.12,West,265,8.1,9.6,33,0.00,,,0.00,VWS V13.01,2013-02-28 14:40:00,
2013-02-28 09:45:00,34.0,8.6,29.12,WNW,289,5.4,8.7,34,0.00,,,0.00,VWS V13.01,2013-02-28 14:45:00,
2013-02-28 09:50:00,34.2,8.7,29.12,West,269,5.4,10.1,34,0.00,,,0.00,VWS V13.01,2013-02-28 14:50:00,
2013-02-28 09:55:00,34.2,8.7,29.12,NW,311,6.3,8.3,34,0.00,,,0.00,VWS V13.01,2013-02-28 14:55:00,
2013-02-28 10:00:00,34.2,8.7,29.12,West,277,6.3,13.6,34,0.00,,,0.00,VWS V13.01,2013-02-28 15:00:00,
2013-02-28 10:05:00,34.2,8.7,29.12,WNW,289,4.0,8.1,34,0.00,,,0.00,VWS V13.01,2013-02-28 15:05:00,
2013-02-28 10:10:00,34.2,9.4,29.12,SW,230,4.0,10.5,35,0.00,,,0.00,VWS V13.01,2013-02-28 15:10:00,
2013-02-28 10:15:00,34.2,8.7,29.12,West,276,5.8,11.0,34,0.00,,,0.00,VWS V13.01,2013-02-28 15:15:00,
2013-02-28 10:20:00,34.2,8.7,29.12,West,265,4.0,8.7,34,0.00,,,0.00,VWS V13.01,2013-02-28 15:20:00,
2013-02-28 10:25:00,34.2,9.4,29.12,WNW,283,6.7,8.7,35,0.00,,,0.00,VWS V13.01,2013-02-28 15:25:00,
2013-02-28 10:30:00,34.3,9.5,29.12,WNW,286,5.4,8.7,35,0.00,,,0.00,VWS V13.01,2013-02-28 15:30:00,
2013-02-28 10:35:00,34.3,9.5,29.12,West,277,5.4,10.1,35,0.00,,,0.00,VWS V13.01,2013-02-28 15:35:00,
2013-02-28 10:40:00,34.3,10.2,29.12,West,274,5.4,8.3,36,0.00,,,0.00,VWS V13.01,2013-02-28 15:40:00,
2013-02-28 10:45:00,34.3,9.5,29.12,WNW,301,5.4,11.0,35,0.00,,,0.00,VWS V13.01,2013-02-28 15:45:00,
2013-02-28 10:50:00,34.3,8.9,29.12,WNW,284,6.3,12.8,34,0.00,,,0.00,VWS V13.01,2013-02-28 15:50:00,
2013-02-28 10:55:00,34.3,9.5,29.12,WNW,298,6.3,8.7,35,0.00,,,0.00,VWS V13.01,2013-02-28 15:55:00,
2013-02-28 11:00:00,34.3,8.9,29.12,West,267,10.1,10.5,34,0.00,,,0.00,VWS V13.01,2013-02-28 16:00:00,
2013-02-28 11:05:00,34.5,9.1,29.15,WNW,283,8.1,10.1,34,0.00,,,0.00,VWS V13.01,2013-02-28 16:05:00,
2013-02-28 11:10:00,34.5,9.1,29.15,WSW,255,5.8,10.5,34,0.00,,,0.00,VWS V13.01,2013-02-28 16:10:00,
2013-02-28 11:15:00,34.5,9.7,29.15,West,264,5.8,8.7,35,0.00,,,0.00,VWS V13.01,2013-02-28 16:15:00,
2013-02-28 11:20:00,34.5,9.7,29.15,WSW,254,5.8,7.6,35,0.00,,,0.00,VWS V13.01,2013-02-28 16:20:00,
2013-02-28 11:25:00,34.5,9.7,29.15,West,277,8.1,8.3,35,0.00,,,0.00,VWS V13.01,2013-02-28 16:25:00,
2013-02-28 11:30:00,34.5,9.1,29.15,West,279,8.1,17.9,34,0.00,,,0.00,VWS V13.01,2013-02-28 16:30:00,
2013-02-28 11:35:00,34.5,9.7,29.15,WNW,287,8.1,8.7,35,0.00,,,0.00,VWS V13.01,2013-02-28 16:35:00,
2013-02-28 11:40:00,34.5,9.7,29.15,NW,310,6.3,11.9,35,0.00,,,0.00,VWS V13.01,2013-02-28 16:40:00,
2013-02-28 11:45:00,34.5,10.3,29.15,NNW,334,8.1,8.1,36,0.00,,,0.00,VWS V13.01,2013-02-28 16:45:00,
2013-02-28 11:50:00,34.5,10.3,29.15,WNW,289,5.8,9.6,36,0.00,,,0.00,VWS V13.01,2013-02-28 16:50:00,
2013-02-28 11:55:00,34.7,10.5,29.15,NW,304,10.1,11.0,36,0.00,,,0.00,VWS V13.01,2013-02-28 16:55:00,
2013-02-28 12:00:00,34.7,9.9,29.15,WNW,292,5.4,10.5,35,0.00,,,0.00,VWS V13.01,2013-02-28 17:00:00,
2013-02-28 12:05:00,34.7,9.9,29.15,WSW,251,8.7,15.0,35,0.00,,,0.00,VWS V13.01,2013-02-28 17:05:00,
2013-02-28 12:10:00,34.7,10.5,29.15,WNW,294,4.5,11.0,36,0.00,,,0.00,VWS V13.01,2013-02-28 17:10:00,
2013-02-28 12:15:00,34.9,10.0,29.15,West,277,8.3,15.0,35,0.00,,,0.00,VWS V13.01,2013-02-28 17:15:00,
2013-02-28 12:20:00,34.9,10.6,29.15,WSW,254,8.3,12.3,36,0.00,,,0.00,VWS V13.01,2013-02-28 17:20:00,
2013-02-28 12:25:00,34.9,10.6,29.15,WSW,253,6.3,12.3,36,0.00,,,0.00,VWS V13.01,2013-02-28 17:25:00,
2013-02-28 12:30:00,34.9,10.6,29.15,WNW,282,8.7,11.0,36,0.00,,,0.00,VWS V13.01,2013-02-28 17:30:00,
2013-02-28 12:35:00,35.1,11.4,29.15,West,277,5.8,8.7,37,0.00,,,0.00,VWS V13.01,2013-02-28 17:35:00,
2013-02-28 12:40:00,35.1,11.4,29.15,WNW,291,8.3,9.6,37,0.00,,,0.00,VWS V13.01,2013-02-28 17:40:00,
2013-02-28 12:46:00,35.1,10.8,29.15,West,275,8.1,10.1,36,0.00,,,0.00,VWS V13.01,2013-02-28 17:46:00,
2013-02-28 12:51:00,35.2,10.3,29.15,WNW,299,8.3,13.2,35,0.00,,,0.00,VWS V13.01,2013-02-28 17:51:00,
2013-02-28 12:56:00,35.2,10.3,29.15,WNW,294,8.1,11.0,35,0.00,,,0.00,VWS V13.01,2013-02-28 17:56:00,
2013-02-28 13:01:00,35.4,10.5,29.15,NW,320,9.2,13.6,35,0.00,,,0.00,VWS V13.01,2013-02-28 18:01:00,
2013-02-28 13:06:00,35.4,10.5,29.15,WNW,299,4.9,13.2,35,0.00,,,0.00,VWS V13.01,2013-02-28 18:06:00,
2013-02-28 13:11:00,35.4,10.5,29.15,WSW,256,8.7,8.7,35,0.00,,,0.00,VWS V13.01,2013-02-28 18:11:00,
2013-02-28 13:16:00,35.4,10.5,29.15,WNW,291,11.0,12.8,35,0.00,,,0.00,VWS V13.01,2013-02-28 18:16:00,
2013-02-28 13:21:00,35.4,10.5,29.15,NW,307,9.6,12.3,35,0.00,,,0.00,VWS V13.01,2013-02-28 18:21:00,
2013-02-28 13:26:00,35.4,10.5,29.15,NW,306,5.4,12.8,35,0.00,,,0.00,VWS V13.01,2013-02-28 18:26:00,
2013-02-28 13:31:00,35.6,10.7,29.15,WNW,290,5.4,11.0,35,0.00,,,0.00,VWS V13.01,2013-02-28 18:31:00,
2013-02-28 13:36:00,35.6,10.7,29.15,WNW,295,7.6,10.5,35,0.00,,,0.00,VWS V13.01,2013-02-28 18:36:00,
2013-02-28 13:41:00,35.6,10.0,29.15,NW,308,13.2,13.6,34,0.00,,,0.00,VWS V13.01,2013-02-28 18:41:00,
2013-02-28 13:46:00,35.6,10.7,29.15,WNW,286,5.8,11.0,35,0.00,,,0.00,VWS V13.01,2013-02-28 18:46:00,
2013-02-28 13:51:00,35.6,10.7,29.15,NW,312,6.3,10.1,35,0.00,,,0.00,VWS V13.01,2013-02-28 18:51:00,
2013-02-28 13:56:00,35.6,11.3,29.15,West,266,7.6,10.5,36,0.00,,,0.00,VWS V13.01,2013-02-28 18:56:00,
2013-02-28 14:01:00,35.6,11.3,29.15,WNW,302,7.6,10.5,36,0.00,,,0.00,VWS V13.01,2013-02-28 19:01:00,
2013-02-28 14:06:00,35.6,11.3,29.15,NW,314,8.1,11.9,36,0.00,,,0.00,VWS V13.01,2013-02-28 19:06:00,
2013-02-28 14:11:00,35.6,11.3,29.15,WNW,284,7.6,11.0,36,0.00,,,0.00,VWS V13.01,2013-02-28 19:11:00,
2013-02-28 14:16:00,35.6,11.3,29.15,West,279,5.4,8.7,36,0.00,,,0.00,VWS V13.01,2013-02-28 19:16:00,
2013-02-28 14:21:00,35.6,11.9,29.15,WNW,300,8.1,8.3,37,0.00,,,0.00,VWS V13.01,2013-02-28 19:21:00,
2013-02-28 14:26:00,35.6,11.9,29.15,WNW,292,10.5,12.8,37,0.00,,,0.00,VWS V13.01,2013-02-28 19:26:00,
2013-02-28 14:31:00,35.4,11.8,29.15,West,271,6.7,13.2,37,0.00,,,0.00,VWS V13.01,2013-02-28 19:31:00,
2013-02-28 14:36:00,35.4,11.8,29.15,WNW,287,10.5,13.2,37,0.00,,,0.00,VWS V13.01,2013-02-28 19:36:00,
2013-02-28 14:41:00,35.4,12.4,29.15,WNW,285,7.6,12.3,38,0.00,,,0.00,VWS V13.01,2013-02-28 19:41:00,
2013-02-28 14:46:00,35.4,12.9,29.15,NNW,337,8.7,10.1,39,0.00,,,0.00,VWS V13.01,2013-02-28 19:46:00,
2013-02-28 14:51:00,35.4,12.9,29.15,WNW,299,7.6,12.8,39,0.00,,,0.00,VWS V13.01,2013-02-28 19:51:00,
2013-02-28 14:56:00,35.4,12.9,29.15,WNW,286,5.8,10.5,39,0.00,,,0.00,VWS V13.01,2013-02-28 19:56:00,
2013-02-28 15:01:00,35.6,12.5,29.15,WNW,294,8.7,12.8,38,0.00,,,0.00,VWS V13.01,2013-02-28 20:01:00,
2013-02-28 15:06:00,35.6,13.1,29.15,WNW,292,5.4,12.8,39,0.00,,,0.00,VWS V13.01,2013-02-28 20:06:00,
2013-02-28 15:11:00,35.6,13.1,29.15,West,280,10.5,10.5,39,0.00,,,0.00,VWS V13.01,2013-02-28 20:11:00,
2013-02-28 15:16:00,35.6,13.1,29.15,West,273,6.3,12.8,39,0.00,,,0.00,VWS V13.01,2013-02-28 20:16:00,
2013-02-28 15:21:00,35.6,13.1,29.15,NW,305,8.1,8.7,39,0.00,,,0.00,VWS V13.01,2013-02-28 20:21:00,
2013-02-28 15:26:00,35.6,13.1,29.15,West,272,9.6,13.2,39,0.00,,,0.00,VWS V13.01,2013-02-28 20:26:00,
2013-02-28 15:31:00,35.6,13.1,29.15,WNW,290,8.3,13.2,39,0.00,,,0.00,VWS V13.01,2013-02-28 20:31:00,
2013-02-28 15:36:00,35.6,13.1,29.15,WNW,285,8.1,8.3,39,0.00,,,0.00,VWS V13.01,2013-02-28 20:36:00,
2013-02-28 15:41:00,35.8,13.3,29.15,WNW,288,8.1,8.1,39,0.00,,,0.00,VWS V13.01,2013-02-28 20:41:00,
2013-02-28 15:46:00,35.8,13.8,29.15,West,270,4.0,8.1,40,0.00,,,0.00,VWS V13.01,2013-02-28 20:46:00,
2013-02-28 15:51:00,35.8,13.8,29.18,WNW,293,5.8,13.2,40,0.00,,,0.00,VWS V13.01,2013-02-28 20:51:00,
2013-02-28 15:56:00,35.8,13.3,29.18,WNW,302,8.1,8.3,39,0.00,,,0.00,VWS V13.01,2013-02-28 20:56:00,
2013-02-28 16:01:00,35.8,13.3,29.18,WNW,286,6.3,11.0,39,0.00,,,0.00,VWS V13.01,2013-02-28 21:01:00,
2013-02-28 16:06:00,35.8,13.8,29.18,WNW,295,10.5,10.5,40,0.00,,,0.00,VWS V13.01,2013-02-28 21:06:00,
2013-02-28 16:11:00,35.8,13.8,29.18,West,279,5.4,10.5,40,0.00,,,0.00,VWS V13.01,2013-02-28 21:11:00,
2013-02-28 16:16:00,35.8,13.8,29.18,WNW,286,6.3,10.5,40,0.00,,,0.00,VWS V13.01,2013-02-28 21:16:00,
2013-02-28 16:21:00,35.8,13.8,29.18,WNW,291,3.6,12.8,40,0.00,,,0.00,VWS V13.01,2013-02-28 21:21:00,
2013-02-28 16:26:00,35.8,13.8,29.18,West,279,8.7,10.1,40,0.00,,,0.00,VWS V13.01,2013-02-28 21:26:00,
2013-02-28 16:31:00,35.8,13.8,29.18,NW,308,8.1,10.5,40,0.00,,,0.00,VWS V13.01,2013-02-28 21:31:00,
2013-02-28 16:36:00,35.8,13.8,29.18,WNW,285,7.6,12.3,40,0.00,,,0.00,VWS V13.01,2013-02-28 21:36:00,
2013-02-28 16:41:00,36.0,14.0,29.18,NW,305,13.2,13.2,40,0.00,,,0.00,VWS V13.01,2013-02-28 21:41:00,
2013-02-28 16:46:00,36.0,14.0,29.18,WNW,292,5.4,10.1,40,0.00,,,0.00,VWS V13.01,2013-02-28 21:46:00,
2013-02-28 16:51:00,36.0,14.0,29.18,West,276,7.6,8.3,40,0.00,,,0.00,VWS V13.01,2013-02-28 21:51:00,
2013-02-28 16:56:00,36.0,14.0,29.18,WSW,245,11.0,11.0,40,0.00,,,0.00,VWS V13.01,2013-02-28 21:56:00,
2013-02-28 17:01:00,35.8,13.8,29.18,WNW,287,4.9,8.7,40,0.00,,,0.00,VWS V13.01,2013-02-28 22:01:00,
2013-02-28 17:06:00,35.8,13.8,29.18,NW,312,6.3,10.5,40,0.00,,,0.00,VWS V13.01,2013-02-28 22:06:00,
2013-02-28 17:11:00,35.8,14.4,29.18,NW,305,8.1,11.0,41,0.00,,,0.00,VWS V13.01,2013-02-28 22:11:00,
2013-02-28 17:16:00,35.8,14.4,29.18,WNW,282,5.4,8.7,41,0.00,,,0.00,VWS V13.01,2013-02-28 22:16:00,
2013-02-28 17:21:00,35.6,14.8,29.18,West,267,6.3,13.2,42,0.00,,,0.00,VWS V13.01,2013-02-28 22:21:00,
2013-02-28 17:26:00,35.4,15.7,29.18,WNW,297,5.4,12.8,44,0.00,,,0.00,VWS V13.01,2013-02-28 22:26:00,
2013-02-28 17:31:00,35.2,16.0,29.18,WNW,294,5.4,10.1,45,0.00,,,0.00,VWS V13.01,2013-02-28 22:31:00,
2013-02-28 17:36:00,35.1,16.4,29.21,West,278,4.0,8.7,46,0.00,,,0.00,VWS V13.01,2013-02-28 22:36:00,
2013-02-28 17:41:00,35.1,17.4,29.21,WNW,292,5.4,10.5,48,0.00,,,0.00,VWS V13.01,2013-02-28 22:41:00,
2013-02-28 17:46:00,35.1,17.4,29.21,West,280,6.3,10.1,48,0.00,,,0.00,VWS V13.01,2013-02-28 22:46:00,
2013-02-28 17:51:00,35.1,17.8,29.21,NW,312,4.0,8.7,49,0.00,,,0.00,VWS V13.01,2013-02-28 22:51:00,
2013-02-28 17:56:00,35.1,17.8,29.21,West,265,4.0,7.2,49,0.00,,,0.00,VWS V13.01,2013-02-28 22:56:00,
2013-02-28 18:01:00,35.1,17.8,29.21,WNW,301,8.1,10.1,49,0.00,,,0.00,VWS V13.01,2013-02-28 23:01:00,
2013-02-28 18:06:00,35.1,18.3,29.21,WNW,282,5.4,11.0,50,0.00,,,0.00,VWS V13.01,2013-02-28 23:06:00,
2013-02-28 18:11:00,35.1,18.3,29.21,WNW,283,7.6,11.0,50,0.00,,,0.00,VWS V13.01,2013-02-28 23:11:00,
2013-02-28 18:16:00,35.1,18.3,29.21,West,280,5.8,8.3,50,0.00,,,0.00,VWS V13.01,2013-02-28 23:16:00,
2013-02-28 18:21:00,35.1,18.3,29.21,WNW,289,4.0,8.1,50,0.00,,,0.00,VWS V13.01,2013-02-28 23:21:00,
2013-02-28 18:26:00,35.1,18.3,29.21,WNW,292,8.3,8.3,50,0.00,,,0.00,VWS V13.01,2013-02-28 23:26:00,
2013-02-28 18:31:00,35.1,18.3,29.21,West,272,7.6,11.0,50,0.00,,,0.00,VWS V13.01,2013-02-28 23:31:00,
2013-02-28 18:36:00,35.1,18.3,29.21,West,264,6.3,6.3,50,0.00,,,0.00,VWS V13.01,2013-02-28 23:36:00,
2013-02-28 18:41:00,35.1,18.3,29.21,West,279,5.8,8.1,50,0.00,,,0.00,VWS V13.01,2013-02-28 23:41:00,
2013-02-28 18:46:00,34.9,18.1,29.21,West,277,8.1,8.1,50,0.00,,,0.00,VWS V13.01,2013-02-28 23:46:00,
2013-02-28 18:51:00,34.9,18.1,29.21,NW,305,5.4,5.4,50,0.00,,,0.00,VWS V13.01,2013-02-28 23:51:00,
2013-02-28 18:56:00,34.9,18.6,29.21,WNW,296,6.3,6.3,51,0.00,,,0.00,VWS V13.01,2013-02-28 23:56:00,
2013-02-28 19:01:00,34.9,18.6,29.21,West,281,4.5,5.4,51,0.00,,,0.00,VWS V13.01,2013-03-01 00:01:00,
2013-02-28 19:06:00,34.9,18.6,29.23,WNW,302,6.3,6.3,51,0.00,,,0.00,VWS V13.01,2013-03-01 00:06:00,
2013-02-28 19:11:00,34.9,19.1,29.23,WNW,296,4.9,6.3,52,0.00,,,0.00,VWS V13.01,2013-03-01 00:11:00,
2013-02-28 19:16:00,34.9,19.1,29.23,WNW,292,5.4,5.4,52,0.00,,,0.00,VWS V13.01,2013-03-01 00:16:00,
2013-02-28 19:21:00,34.9,19.1,29.21,West,281,4.0,6.3,52,0.00,,,0.00,VWS V13.01,2013-03-01 00:21:00,
2013-02-28 19:26:00,34.9,19.5,29.21,West,266,5.8,5.8,53,0.00,,,0.00,VWS V13.01,2013-03-01 00:26:00,
2013-02-28 19:31:00,34.9,19.5,29.21,WNW,300,4.9,4.9,53,0.00,,,0.00,VWS V13.01,2013-03-01 00:31:00,
2013-02-28 19:36:00,34.9,19.9,29.23,WNW,289,5.8,5.8,54,0.00,,,0.00,VWS V13.01,2013-03-01 00:36:00,
2013-02-28 19:41:00,34.9,19.9,29.23,West,275,3.6,3.6,54,0.00,,,0.00,VWS V13.01,2013-03-01 00:41:00,
2013-02-28 19:46:00,34.7,19.8,29.23,WSW,258,2.7,3.6,54,0.00,,,0.00,VWS V13.01,2013-03-01 00:46:00,
2013-02-28 19:51:00,34.7,19.8,29.23,WNW,294,4.0,4.0,54,0.00,,,0.00,VWS V13.01,2013-03-01 00:51:00,
2013-02-28 19:56:00,34.5,19.6,29.23,NW,315,4.0,4.0,54,0.00,,,0.00,VWS V13.01,2013-03-01 00:56:00,
2013-02-28 20:01:00,34.5,20.0,29.23,WNW,303,4.9,4.9,55,0.00,,,0.00,VWS V13.01,2013-03-01 01:01:00,
2013-02-28 20:06:00,34.5,20.0,29.23,West,272,4.0,5.4,55,0.00,,,0.00,VWS V13.01,2013-03-01 01:06:00,
2013-02-28 20:11:00,34.5,20.5,29.23,WNW,285,3.6,4.5,56,0.00,,,0.00,VWS V13.01,2013-03-01 01:11:00,
2013-02-28 20:16:00,34.5,20.5,29.23,West,272,4.9,4.9,56,0.00,,,0.00,VWS V13.01,2013-03-01 01:16:00,
2013-02-28 20:21:00,34.5,20.5,29.23,WNW,284,3.1,5.4,56,0.00,,,0.00,VWS V13.01,2013-03-01 01:21:00,
2013-02-28 20:26:00,34.5,20.9,29.23,WNW,291,3.1,3.1,57,0.00,,,0.00,VWS V13.01,2013-03-01 01:26:00,
2013-02-28 20:31:00,34.5,20.9,29.23,WNW,294,3.6,3.6,57,0.00,,,0.00,VWS V13.01,2013-03-01 01:31:00,
2013-02-28 20:36:00,34.3,21.1,29.21,WNW,293,2.7,3.6,58,0.00,,,0.00,VWS V13.01,2013-03-01 01:36:00,
2013-02-28 20:41:00,34.3,21.1,29.21,WNW,293,3.6,3.6,58,0.00,,,0.00,VWS V13.01,2013-03-01 01:41:00,
2013-02-28 20:46:00,34.3,21.1,29.21,NW,305,3.6,3.6,58,0.00,,,0.00,VWS V13.01,2013-03-01 01:46:00,
2013-02-28 20:51:00,34.3,21.5,29.23,WNW,298,3.6,3.6,59,0.00,,,0.00,VWS V13.01,2013-03-01 01:51:00,
2013-02-28 20:56:00,34.3,21.5,29.23,NW,317,4.0,4.0,59,0.00,,,0.00,VWS V13.01,2013-03-01 01:56:00,
2013-02-28 21:01:00,34.5,21.7,29.23,NW,312,4.0,6.3,59,0.00,,,0.00,VWS V13.01,2013-03-01 02:01:00,
2013-02-28 21:06:00,34.5,22.1,29.23,WNW,293,5.4,5.4,60,0.00,,,0.00,VWS V13.01,2013-03-01 02:06:00,
2013-02-28 21:11:00,34.5,22.1,29.23,WNW,295,3.1,4.0,60,0.00,,,0.00,VWS V13.01,2013-03-01 02:11:00,
2013-02-28 21:16:00,34.5,22.5,29.23,WNW,300,3.1,3.6,61,0.00,,,0.00,VWS V13.01,2013-03-01 02:16:00,
2013-02-28 21:21:00,34.5,22.5,29.23,WNW,303,3.6,3.6,61,0.00,,,0.00,VWS V13.01,2013-03-01 02:21:00,
2013-02-28 21:26:00,34.5,22.5,29.23,West,281,3.6,4.0,61,0.00,,,0.00,VWS V13.01,2013-03-01 02:26:00,
2013-02-28 21:31:00,34.5,22.9,29.23,NW,315,3.6,3.6,62,0.00,,,0.00,VWS V13.01,2013-03-01 02:31:00,
2013-02-28 21:36:00,34.7,23.0,29.23,WNW,296,3.6,3.6,62,0.00,,,0.00,VWS V13.01,2013-03-01 02:36:00,
2013-02-28 21:41:00,34.7,23.0,29.23,NW,314,5.8,5.8,62,0.00,,,0.00,VWS V13.01,2013-03-01 02:41:00,
2013-02-28 21:46:00,34.7,23.4,29.23,WNW,297,3.6,4.0,63,0.00,,,0.00,VWS V13.01,2013-03-01 02:46:00,
2013-02-28 21:51:00,34.7,23.4,29.23,WNW,298,4.0,5.8,63,0.00,,,0.00,VWS V13.01,2013-03-01 02:51:00,
2013-02-28 21:56:00,34.7,23.4,29.23,NW,312,3.1,5.8,63,0.00,,,0.00,VWS V13.01,2013-03-01 02:56:00,
2013-02-28 22:01:00,34.7,23.4,29.23,NW,315,3.6,3.6,63,0.00,,,0.00,VWS V13.01,2013-03-01 03:01:00,
2013-02-28 22:06:00,34.9,24.0,29.23,NW,315,4.0,4.0,64,0.00,,,0.00,VWS V13.01,2013-03-01 03:06:00,
2013-02-28 22:11:00,34.9,24.0,29.23,WNW,294,3.1,4.9,64,0.00,,,0.00,VWS V13.01,2013-03-01 03:11:00,
2013-02-28 22:16:00,34.9,24.0,29.23,NW,304,2.7,2.7,64,0.00,,,0.00,VWS V13.01,2013-03-01 03:16:00,
2013-02-28 22:21:00,34.9,24.0,29.23,West,281,2.7,3.6,64,0.00,,,0.00,VWS V13.01,2013-03-01 03:21:00,
2013-02-28 22:26:00,34.9,24.0,29.23,WNW,292,4.0,4.0,64,0.00,,,0.00,VWS V13.01,2013-03-01 03:26:00,
2013-02-28 22:31:00,34.9,24.0,29.23,West,280,3.6,4.0,64,0.00,,,0.00,VWS V13.01,2013-03-01 03:31:00,
2013-02-28 22:36:00,35.1,24.1,29.23,NW,318,4.0,4.0,64,0.00,,,0.00,VWS V13.01,2013-03-01 03:36:00,
2013-02-28 22:41:00,35.1,24.1,29.23,NNW,330,3.6,3.6,64,0.00,,,0.00,VWS V13.01,2013-03-01 03:41:00,
2013-02-28 22:46:00,35.1,24.1,29.23,WNW,295,2.7,3.6,64,0.00,,,0.00,VWS V13.01,2013-03-01 03:46:00,
2013-02-28 22:51:00,35.1,24.1,29.23,West,270,3.1,3.1,64,0.00,,,0.00,VWS V13.01,2013-03-01 03:51:00,
2013-02-28 22:56:00,35.1,24.5,29.23,WNW,302,2.2,3.6,65,0.00,,,0.00,VWS V13.01,2013-03-01 03:56:00,
2013-02-28 23:01:00,35.1,24.5,29.23,NW,306,2.7,2.7,65,0.00,,,0.00,VWS V13.01,2013-03-01 04:01:00,
2013-02-28 23:06:00,35.2,24.7,29.23,NW,321,3.6,3.6,65,0.00,,,0.00,VWS V13.01,2013-03-01 04:06:00,
2013-02-28 23:11:00,35.2,24.7,29.23,NW,305,3.6,3.6,65,0.00,,,0.00,VWS V13.01,2013-03-01 04:11:00,
2013-02-28 23:16:00,35.2,24.7,29.23,NW,314,2.2,2.2,65,0.00,,,0.00,VWS V13.01,2013-03-01 04:16:00,
2013-02-28 23:21:00,35.2,24.7,29.23,WNW,303,3.6,3.6,65,0.00,,,0.00,VWS V13.01,2013-03-01 04:21:00,
2013-02-28 23:26:00,35.2,24.7,29.23,NNW,327,2.7,2.7,65,0.00,,,0.00,VWS V13.01,2013-03-01 04:26:00,
2013-02-28 23:31:00,35.2,25.0,29.23,WNW,301,3.1,3.1,66,0.00,,,0.00,VWS V13.01,2013-03-01 04:31:00,
2013-02-28 23:36:00,35.2,25.0,29.23,WNW,297,2.7,4.0,66,0.00,,,0.00,VWS V13.01,2013-03-01 04:36:00,
2013-02-28 23:41:00,35.2,25.0,29.23,NW,312,2.7,4.0,66,0.00,,,0.00,VWS V13.01,2013-03-01 04:41:00,
2013-02-28 23:46:00,35.4,25.2,29.23,WNW,298,2.7,2.7,66,0.00,,,0.00,VWS V13.01,2013-03-01 04:46:00,
2013-02-28 23:51:00,35.4,25.2,29.23,WNW,291,2.2,5.4,66,0.00,,,0.00,VWS V13.01,2013-03-01 04:51:00,
2013-02-28 23:56:00,35.4,25.2,29.23,WNW,300,3.6,3.6,66,0.00,,,0.00,VWS V13.01,2013-03-01 04:56:00,